Weather History for Greybull, WY

Change the Weather History Date:

Monday, February 4, 2013

  Actual Average Record
Temperature  
Mean Temperature 15 °F 19 °F  
Max Temperature 30 °F 31 °F 62 °F (2005)
Min Temperature 0 °F 8 °F -7 °F (2002)
Degree Days  
Heating Degree Days 50 46  
Month to date heating degree days 201 184  
Since 1 July heating degree days 4789 4998  
Cooling Degree Days 0 0  
Month to date cooling degree days 0 0  
Year to date cooling degree days 0 0  
Moisture  
Dew Point 11 °F    
Average Humidity 79    
Maximum Humidity 95    
Minimum Humidity 63    
Precipitation  
Precipitation 0.00 in 0.00 in 0.01 in (2003)
Month to date precipitation T 0.02  
Year to date precipitation 0.28 0.25  
Sea Level Pressure  
Sea Level Pressure 30.10 in    
Wind  
Wind Speed 2 mph (West)    
Max Wind Speed 9 mph    
Max Gust Speed 12 mph    
Visibility 9 miles    
Events      
T = Trace of Precipitation, MM = Missing Value Source: NWS Daily Summary

Daily Weather History Graph

Daily Weather History Graph

Search for Another Location

Airport:

Trip Planner

Search our weather history database for the weather conditions in past years. The results will help you decide how hot, cold, wet, or windy it might be!

Date:

Astronomy

Feb. 04, 2013 Rise Set
Actual Time 7:26 AM MST 5:26 PM MST
Civil Twilight 6:56 AM MST 5:56 PM MST
Nautical Twilight 6:21 AM MST 6:31 PM MST
Astronomical Twilight 5:47 AM MST 7:05 PM MST
Moon 2:09 AM MST (2/4) 11:48 AM MST (2/4)
Length of Visible Light 11h 00m
Length of Day
9h 59m
Last Quarter, 36% of the Moon is Illuminated
Feb 4
Last Quarter
Feb 10
New
Feb 17
First Quarter
Feb 25
Full
Mar 4
Last Quarter

Hourly Weather History & Observations

Time (MST) Temp. Windchill Dew Point Humidity Pressure Visibility Wind Dir Wind Speed Gust Speed Precip Events Conditions
12:53 AM 1.9 °F - -0.9 °F 88% 30.19 in 9.0 mi Calm Calm - N/A   Partly Cloudy
1:53 AM 1.9 °F - -2.0 °F 83% 30.18 in 10.0 mi Calm Calm - N/A   Overcast
4:53 AM 3.0 °F - -0.0 °F 87% 30.15 in 7.0 mi Calm Calm - N/A   Mostly Cloudy
5:53 AM 5.0 °F - 1.9 °F 87% 30.14 in 9.0 mi Calm Calm - N/A   Overcast
6:53 AM 9.0 °F - 5.0 °F 84% 30.13 in 9.0 mi Calm Calm - N/A   Overcast
7:53 AM 9.0 °F 2.4 °F 6.1 °F 88% 30.13 in 7.0 mi NNE 3.5 mph - N/A   Overcast
8:53 AM 10.0 °F - 8.1 °F 92% 30.13 in 7.0 mi Calm Calm - N/A   Overcast
9:53 AM 14.0 °F - 10.9 °F 88% 30.12 in 9.0 mi Calm Calm - N/A   Overcast
10:53 AM 17.1 °F - 12.0 °F 81% 30.12 in 10.0 mi Calm Calm - N/A   Overcast
11:53 AM 19.9 °F - 14.0 °F 78% 30.11 in 10.0 mi Calm Calm - N/A   Mostly Cloudy
12:53 PM 25.0 °F - 15.1 °F 66% 30.08 in 10.0 mi Calm Calm - N/A   Partly Cloudy
1:53 PM 26.1 °F 20.5 °F 17.1 °F 69% 30.06 in 10.0 mi East 4.6 mph - N/A   Clear
2:53 PM 28.9 °F 25.2 °F 18.0 °F 64% 30.04 in 10.0 mi SW 3.5 mph - N/A   Clear
3:53 PM 27.0 °F - 19.0 °F 72% 30.05 in 10.0 mi Calm Calm - N/A   Clear
4:53 PM 25.0 °F 18.1 °F 18.0 °F 75% 30.04 in 10.0 mi NW 5.8 mph - N/A   Clear
5:53 PM 19.9 °F 12.1 °F 15.1 °F 81% 30.05 in 10.0 mi SW 5.8 mph - N/A   Clear
6:53 PM 19.0 °F 12.3 °F 14.0 °F 81% 30.06 in 10.0 mi West 4.6 mph - N/A   Clear
7:53 PM 15.1 °F - 12.0 °F 88% 30.06 in 10.0 mi Calm Calm - N/A   Clear
8:53 PM 15.1 °F 7.7 °F 10.9 °F 84% 30.08 in 10.0 mi Variable 4.6 mph - N/A   Scattered Clouds
9:53 PM 17.1 °F - 12.9 °F 84% 30.08 in 10.0 mi Calm Calm - N/A   Overcast
10:53 PM 17.1 °F - 14.0 °F 88% 30.08 in 10.0 mi Calm Calm - N/A   Overcast
11:53 PM 12.9 °F 6.9 °F 10.0 °F 88% 30.09 in 7.0 mi SW 3.5 mph - N/A   Partly Cloudy